Location: Unspecified
(45.3999°N, 88.1269°W)
Time: 05:28:43
(UTC-05:00)

CZ-3 Stage 3 - Visible Passes

Search period start: 27 June 2017 00:00
Search period end: 07 July 2017 00:00
Orbit: 418 x 34780 km, 30.9° (Epoch: 26 June)

Date Brightness Start Highest point End Pass type
(mag) Time Alt. Az. Time Alt. Az. Time Alt. Az.
27 Jun 7.3 14:48:44 10° SW 19:10:04 42° SE 23:33:41 13° S visible
28 Jun 10.0 22:17:47 10° WNW 23:22:13 22° W 01:37:55 10° W visible
29 Jun 9.2 18:18:43 10° W 19:24:57 59° SW 01:58:07 10° SW visible
30 Jun 7.2 14:39:27 10° WSW 18:56:07 41° SE 23:27:29 11° S visible
01 Jul 10.1 22:08:44 10° WNW 23:11:39 22° W 01:23:02 10° W visible
02 Jul 9.2 18:09:25 10° W 19:14:13 59° SW 01:43:59 10° SW visible
03 Jul 7.2 14:30:10 10° WSW 18:41:56 41° SE 23:19:33 10° S visible
04 Jul 10.1 21:59:44 10° WNW 23:01:08 21° W 01:08:02 10° W visible
05 Jul 9.1 18:00:08 10° W 19:03:33 58° SW 01:29:47 10° SW visible
06 Jul 7.1 14:20:53 10° WSW 18:27:26 40° SE 23:08:29 10° S visible
